Presure
188 200 195 196 126 156 155 152 144 132 147 160 139 144 151 167 133 145 134 143 130 148 146 134 149 135 151 129 182 150 242 158 142 256 285 281 305 350 412 127 240 253 203 192 207
158 193 171 199 129 147 136 147 163 191 159 155 139 157 131 138 128 142 188 124 140 160 141 151 133 150 145 101 146 159 150 146 145 272 175 271 241 393 384 320 249 190 234 232 105
191 142 163 200 194 159 154 152 153 146 160 152 210 158 137 122 152 112 150 166 146 176 137 141 147 152 139 130 133 269 250 128 140 252 167 322 406 385 367 365 388 383 131 82 224
174 166 175 146 156 194 204 189 169 176 149 179 169 157 168 136 147 156 159 125 159 159 151 169 141 148 161 117 134 147 254 135 228 141 156 347 390 379 354 208 396 392 273 72 220
170 153 165 158 151 195 204 138 143 167 197 176 153 126 146 147 142 223 149 152 124 151 127 148 139 117 145 138 134 141 255 253 168 202 155 304 360 382 348 352 270 321 361 251 204
177 167 139 132 177 182 132 157 215 187 179 186 141 132 223 135 176 225 145 136 165 180 149 125 153 145 120 162 140 134 157 245 137 158 151 255 312 363 248 253 244 149 155 220 223
162 200 198 210 205 209 214 206 204 167 136 130 208 203 115 139 135 110 215 142 128 114 145 226 149 244 244 156 124 143 151 241 237 163 151 165 159 351 374 347 377 391 355 245 231
202 214 173 196 189 210 218 219 210 221 215 209 220 148 129 197 130 175 136 156 145 192 217 227 232 139 117 167 199 137 115 227 212 142 163 214 171 353 379 350 368 187 342 252 199
152 205 200 210 212 224 224 214 181 210 216 204 209 202 132 160 218 221 223 229 182 222 144 232 237 193 186 124 151 148 144 138 236 155 144 209 242 168 363 321 367 386 324 257 223
199 199 216 200 205 212 219 207 221 220 202 207 207 211 213 211 219 235 155 223 204 182 234 238 236 246 249 239 157 268 219 236 240 152 235 194 150 159 353 380 366 383 307 255 223
204 216 218 229 205 202 212 207 225 207 211 229 220 221 223 227 236 246 237 231 229 234 143 168 237 245 248 152 150 266 146 158 239 240 181 193 141 378 364 378 140 374 297 253 223
180 169 193 140 149 226 187 218 221 219 209 217 216 220 219 215 218 212 216 223 233 240 229 152 227 172 249 133 149 182 247 221 137 235 148 224 152 242 159 388 364 381 291 254 226
215 197 179 176 197 173 217 213 215 206 212 202 209 217 203 193 194 230 233 225 215 206 227 233 236 235 224 248 230 212 195 233 238 233 230 237 178 151 213 373 390 377 290 256 231
196 203 205 210 168 202 207 172 222 227 234 197 221 210 223 203 232 238 241 224 228 236 236 230 225 211 230 246 215 244 243 138 213 225 232 231 145 229 274 357 389 393 293 260 236
218 207 208 212 216 189 224 224 214 195 231 235 232 227 199 229 227 234 233 245 249 247 215 213 225 225 235 240 232 228 243 232 224 226 218 228 173 233 184 279 387 405 298 269 243
192 210 209 213 213 218 219 218 218 214 218 223 183 226 227 232 237 227 261 258 261 231 268 264 238 231 236 241 221 231 232 232 231 234 218 226 236 223 132 146 298 378 429 281 248
184 200 195 195 203 198 211 229 219 214 221 232 219 221 232 252 257 251 237 279 267 264 259 260 254 234 238 240 237 224 223 220 228 231 235 170 220 202 220 249 189 304 367 317 261
187 208 203 185 211 216 218 213 229 233 226 241 226 236 249 268 250 263 246 263 267 274 277 282 251 251 221 246 233 243 227 216 215 225 229 230 219 226 218 227 232 268 316 377 283
220 222 200 152 222 214 207 209 215 232 209 243 243 241 244 247 264 261 270 259 267 273 268 256 277 251 243 244 250 228 241 226 214 220 225 231 227 217 230 225 231 256 273 325 342
199 199 209 203 206 226 215 236 235 232 235 246 229 251 242 248 271 268 270 261 261 263 257 241 234 249 242 255 261 247 229 232 220 223 219 220 232 221 227 229 141 236 256 280 330
199 193 223 215 207 222 233 238 222 242 239 242 249 254 237 273 273 268 269 271 261 252 245 250 249 242 239 253 248 246 248 238 235 216 226 218 222 213 163 224 232 215 245 261 287
206 231 213 201 231 219 231 243 250 248 254 256 257 240 272 281 270 269 272 265 262 252 265 261 253 244 243 245 247 248 245 244 242 236 236 223 218 211 210 172 155 234 201 247 266
249 187 235 240 244 230 254 258 243 259 239 251 254 230 283 279 276 266 267 260 249 250 250 252 259 244 242 243 245 244 241 244 239 232 239 226 218 221 230 215 132 222 213 234 252
230 221 242 243 234 254 242 236 279 289 239 226 291 284 282 277 267 264 262 250 245 247 250 254 256 252 249 246 242 245 251 246 252 240 242 226 224 219 229 230 218 224 230 221 238
223 247 257 250 254 305 215 311 334 246 323 298 298 288 292 278 270 265 261 251 248 251 252 255 256 246 247 251 249 245 247 248 253 241 246 226 226 227 226 233 218 218 217 192 228
241 296 272 291 207 312 306 309 298 309 272 277 263 284 286 268 266 267 258 257 251 244 250 251 256 259 254 245 249 256 263 258 255 250 251 242 230 232 227 224 191 218 212 222 219
263 269 262 289 316 314 318 292 281 295 274 279 277 256 278 270 256 262 263 254 248 250 249 246 240 253 272 256 259 234 205 246 257 256 265 275 274 230 224 227 173 227 202 220 206
Wind_Speed
30 26 25 29 16 21 21 21 18 21 21 27 22 21 24 32 23 28 24 26 29 28 28 28 28 28 31 27 40 31 67 30 29 71 66 76 64 42 43 18 70 76 61 59 61
23 27 30 26 18 21 17 21 28 31 29 28 28 31 23 22 25 24 46 25 29 35 31 30 31 31 31 26 29 32 26 25 24 64 40 72 46 35 38 36 34 59 70 75 38
35 23 31 32 34 28 31 29 29 28 33 32 36 34 23 31 31 25 34 39 29 32 32 33 28 34 32 33 27 47 50 30 26 55 36 52 35 30 34 38 47 73 44 21 76
30 31 34 28 33 33 34 42 34 34 32 43 39 34 43 33 32 35 37 35 38 35 32 41 36 28 34 26 30 29 50 30 52 28 30 53 24 26 29 25 37 61 102 22 73
37 31 34 31 34 39 40 27 30 40 41 37 38 34 33 33 36 37 34 33 35 34 38 36 29 28 30 35 33 30 47 52 31 36 25 67 30 21 25 33 33 46 85 87 71
45 43 32 28 40 43 28 29 40 37 35 35 34 32 38 33 54 37 35 36 40 38 35 42 37 34 34 33 34 32 34 50 30 26 21 52 30 19 27 24 36 34 43 77 79
47 50 46 40 40 42 38 44 45 36 34 35 43 44 41 36 36 37 43 36 31 24 36 50 34 50 51 30 32 30 27 44 48 29 21 28 34 27 22 31 35 56 89 89 87
52 48 49 46 44 43 40 42 44 38 39 39 38 38 39 43 41 42 40 43 46 42 46 45 47 34 34 29 37 35 31 42 36 29 27 37 34 26 21 31 35 41 93 96 73
50 49 51 45 44 42 41 42 36 42 40 45 45 49 41 44 45 49 49 49 50 51 41 49 50 42 38 35 30 30 32 32 40 29 27 36 43 29 24 26 34 52 98 100 89
55 51 49 47 48 45 42 44 38 41 49 48 49 47 47 48 49 54 45 49 46 44 51 50 49 55 58 48 39 45 36 39 41 31 39 32 27 28 21 13 30 47 101 102 93
54 51 49 43 49 50 45 48 41 47 48 46 44 48 48 50 54 55 50 51 49 49 49 43 47 53 55 38 37 44 32 35 38 38 30 28 30 28 21 6 36 44 101 103 96
53 49 52 50 51 45 54 43 42 40 48 54 51 48 45 46 48 48 48 47 51 49 43 43 42 40 48 41 40 33 36 39 36 33 34 32 27 39 29 7 20 37 102 105 103
49 54 58 55 55 54 54 49 49 49 45 57 58 54 54 58 59 56 54 49 49 49 44 45 44 43 40 42 38 35 30 34 34 35 31 29 27 27 23 14 12 32 102 106 107
58 56 55 57 57 56 55 60 53 54 52 61 60 60 59 58 60 61 61 51 52 53 49 42 42 42 40 41 38 36 34 45 34 33 32 30 34 25 40 33 7 21 100 105 108
53 53 54 56 58 62 61 61 60 60 57 57 58 61 63 60 58 64 60 63 63 58 45 46 43 42 42 38 36 33 31 35 31 27 31 28 28 28 19 35 26 9 98 105 107
58 58 61 63 64 62 64 64 64 63 62 62 60 65 65 65 66 62 68 67 65 54 60 57 46 43 40 35 36 31 31 34 32 27 27 29 25 22 37 32 32 28 14 103 107
62 64 62 63 68 65 67 65 65 66 65 63 67 67 67 63 62 66 65 67 66 58 55 53 52 45 41 37 34 32 29 32 37 33 24 36 25 24 18 20 20 28 32 75 107
65 70 71 69 72 72 71 70 69 66 66 65 65 65 63 65 62 62 63 64 64 59 50 45 52 51 43 41 37 34 33 31 34 37 36 22 26 23 19 17 14 19 25 31 107
76 72 74 50 77 78 74 75 74 70 70 72 70 64 63 63 65 60 61 59 58 56 50 45 45 50 48 44 41 37 36 34 34 35 39 35 20 27 19 18 17 15 20 23 33
78 80 86 78 82 81 83 79 77 76 74 73 67 69 65 66 65 62 58 55 55 54 51 48 47 50 49 48 45 39 37 36 35 35 39 40 34 24 23 20 35 17 14 19 24
86 79 86 85 89 84 83 80 80 77 77 74 72 71 65 68 65 63 55 51 52 54 54 51 49 52 53 49 48 44 41 38 37 38 37 39 50 26 41 24 22 21 16 16 19
91 84 87 90 84 86 81 80 77 78 78 77 74 68 70 68 64 62 56 50 50 53 48 49 45 46 52 52 50 47 45 42 39 40 39 36 55 39 32 38 36 22 26 18 17
91 85 85 84 82 82 83 80 76 76 75 74 73 70 66 65 61 59 55 52 53 54 55 53 48 50 50 54 53 52 50 45 42 41 44 38 49 57 43 31 44 24 24 23 19
86 82 91 87 85 87 84 80 81 73 72 75 71 68 65 63 62 59 55 56 59 58 58 56 53 55 52 53 56 54 52 49 47 47 46 48 45 64 50 32 36 29 25 25 23
83 106 98 92 88 81 79 77 65 75 61 64 60 62 58 60 62 61 59 59 63 62 65 63 58 59 57 58 59 56 53 55 56 58 52 56 46 66 54 40 37 36 32 34 25
107 96 91 87 78 70 69 65 65 62 65 63 62 58 57 60 63 60 64 64 62 69 70 70 63 66 56 62 63 58 52 59 63 67 64 61 52 63 55 50 51 41 37 32 29
114 91 86 83 68 63 62 65 64 60 65 62 60 61 62 64 65 65 64 66 68 69 73 73 75 74 66 69 66 40 46 67 69 71 70 67 60 64 62 60 51 43 42 35 37
Wind_Direction
325 320 313 309 248 283 282 279 269 249 262 271 261 259 270 278 242 263 248 262 261 269 264 259 266 261 272 271 285 273 291 274 259 289 289 283 285 266 250 231 240 239 240 230 221
301 309 306 309 256 272 270 275 280 287 277 272 262 274 251 246 243 263 284 270 275 277 260 266 260 266 263 263 271 280 271 265 267 296 284 292 275 263 247 246 232 220 225 226 228
321 282 290 295 298 288 283 281 280 268 279 275 288 279 254 253 276 276 281 283 268 280 253 262 260 277 258 263 269 304 290 255 265 302 281 304 277 258 247 245 234 215 230 225 220
309 305 300 283 281 300 293 295 285 285 280 288 285 281 285 255 271 277 281 258 279 276 268 284 258 262 282 273 268 282 298 255 299 268 282 335 301 258 243 237 234 213 213 235 213
298 299 301 294 286 299 305 279 284 290 288 287 288 279 278 275 274 302 274 276 275 276 261 272 276 281 257 261 266 269 304 305 286 302 283 339 325 278 248 245 240 218 203 208 219
312 293 285 284 298 298 274 280 302 290 279 287 277 257 301 258 288 310 276 281 287 298 273 266 270 264 278 293 267 265 290 308 261 284 278 333 301 322 244 241 242 242 230 205 207
287 311 311 307 303 303 298 295 293 281 273 260 288 287 269 262 259 276 300 270 279 279 270 308 275 322 324 279 268 267 277 310 312 282 276 286 275 312 271 244 226 205 194 201 201
309 310 295 302 301 303 299 297 294 298 294 291 297 270 255 290 277 287 263 279 273 295 307 305 311 281 280 283 305 268 260 310 313 262 286 319 282 329 311 234 223 232 192 199 207
296 308 308 307 305 304 300 301 283 296 294 293 294 290 264 272 304 307 307 311 286 307 272 311 314 300 293 270 275 263 266 268 319 267 265 314 339 283 339 237 218 205 191 196 199
308 308 306 302 303 300 302 298 299 298 294 291 291 293 296 298 307 308 275 305 298 288 312 312 314 318 319 314 288 322 303 317 320 270 324 303 271 284 346 238 216 203 191 194 198
307 307 305 306 303 301 297 295 306 293 294 305 297 301 304 308 308 306 304 306 306 308 278 286 316 319 317 278 272 321 264 283 321 327 290 301 262 357 350 247 254 200 191 194 198
304 302 300 299 298 306 301 297 302 304 303 308 299 303 303 300 299 294 298 303 305 308 304 277 311 283 317 264 275 276 313 311 268 325 264 322 263 351 275 345 214 203 190 193 198
309 305 302 300 299 300 306 298 299 292 298 288 297 303 292 294 293 304 305 301 295 295 302 308 312 312 307 313 309 297 281 314 319 322 326 329 290 264 325 349 227 207 192 194 199
299 304 302 309 301 303 305 300 306 306 306 289 302 298 301 295 304 304 302 297 298 300 302 303 302 297 306 311 298 313 307 265 308 317 323 325 258 334 12 12 329 229 195 196 201
314 310 309 310 312 298 309 308 304 295 307 307 304 303 295 302 301 302 300 298 296 296 294 294 294 294 300 302 300 304 306 302 305 310 312 320 269 332 284 16 5 288 199 199 201
305 316 316 314 312 311 309 307 307 305 305 307 298 305 304 304 302 301 294 295 294 292 294 292 290 289 291 295 291 297 302 300 301 301 301 308 324 320 258 259 21 10 303 204 203
305 312 307 307 310 306 307 307 305 305 305 305 303 304 303 302 300 297 298 293 292 294 293 294 289 283 286 286 286 284 287 293 299 300 301 267 304 283 308 345 283 19 8 212 206
305 313 309 301 309 306 305 304 305 307 304 305 301 300 306 302 298 297 294 293 292 292 291 288 283 283 283 283 278 277 275 278 285 297 295 290 290 297 287 303 314 5 17 0 211
313 311 309 296 308 308 306 305 305 306 303 306 306 302 304 301 296 295 295 292 291 290 287 283 284 281 280 279 277 272 270 273 276 282 287 287 275 278 291 288 302 337 3 9 236
309 311 309 306 307 307 305 304 304 304 303 305 302 305 301 300 295 294 294 291 289 286 285 284 282 280 279 280 277 271 266 267 269 273 279 282 282 273 281 285 251 297 325 357 2
308 306 302 302 303 304 304 302 303 302 302 303 302 302 298 295 292 291 292 291 284 282 282 279 278 277 278 277 274 272 269 263 263 266 266 276 279 258 257 273 287 267 296 329 354
301 308 300 304 302 301 301 303 302 301 299 299 299 299 295 291 289 290 292 289 284 280 278 274 271 271 274 274 273 271 268 265 263 262 258 261 270 263 255 258 256 279 266 295 326
315 306 306 308 307 301 306 302 300 299 299 298 296 299 290 288 287 287 286 285 282 279 277 275 273 269 267 270 271 269 267 265 262 260 257 253 262 270 262 257 252 265 259 285 303
315 303 312 310 304 309 305 302 295 294 298 299 289 287 286 284 284 284 281 280 279 278 277 273 271 269 267 266 267 267 267 264 258 253 249 251 250 264 263 260 263 265 270 266 285
306 317 313 311 310 301 301 292 295 299 291 288 286 286 282 280 283 281 278 278 280 278 276 274 270 270 269 269 267 265 267 267 263 256 248 244 244 254 264 256 249 255 252 243 263
316 311 314 307 304 301 299 295 294 291 290 289 290 284 278 279 278 276 279 278 276 279 279 279 278 275 272 270 268 268 271 268 263 258 255 242 238 250 251 253 252 243 243 253 250
320 311 310 308 304 300 295 295 295 289 290 288 286 291 280 278 281 277 273 274 277 276 277 280 283 280 279 274 273 271 261 266 268 263 262 262 254 240 248 248 244 244 238 244 240